�������l�o���
Date,Time,MP-1(��Sv/h),MP-2(��Sv/h),MP-3(��Sv/h),MP-4(��Sv/h),MP-5(��Sv/h),MP-6(��Sv/h),MP-7(��Sv/h),MP-8(��Sv/h),����,����(m/s),���J
2016/06/25,00:00,1.246,-,2.111,2.130,1.819,0.629,1.163,1.014,��쓌,7.3,�L
2016/06/25,00:10,1.246,-,2.113,2.130,1.816,0.631,1.164,1.014,��쓌,9.8,�L
2016/06/25,00:20,1.244,-,2.108,2.129,1.816,0.630,1.164,1.014,��쓌,8.9,�L
2016/06/25,00:30,1.244,-,2.107,2.126,1.814,0.631,1.163,1.012,��쓌,9.9,�L
2016/06/25,00:40,1.240,-,2.101,2.122,1.810,0.629,1.159,1.009,��,8.4,�L
2016/06/25,00:50,1.235,-,2.099,2.118,1.801,0.629,1.158,1.011,��,9.0,�L
2016/06/25,01:00,1.234,-,2.092,2.115,1.796,0.625,1.158,1.009,��,8.6,�L
2016/06/25,01:10,1.227,-,2.083,2.106,1.786,0.628,1.155,1.010,��,7.7,�L
2016/06/25,01:20,1.224,-,2.071,2.095,1.765,0.624,1.153,1.005,��,9.1,�L
2016/06/25,01:30,1.226,-,2.076,2.100,1.759,0.624,1.150,1.004,��,7.9,�L
2016/06/25,01:40,1.227,-,2.076,2.096,1.756,0.624,1.149,1.006,��,7.1,�L
2016/06/25,01:50,1.231,-,2.069,2.093,1.747,0.625,1.147,1.005,��,8.1,�L
2016/06/25,02:00,1.220,-,2.061,2.081,1.721,0.621,1.139,0.999,��,6.0,�L
2016/06/25,02:10,1.217,-,2.054,2.081,1.710,0.621,1.135,0.995,��쐼,2.5,�L
2016/06/25,02:20,1.214,-,2.051,2.074,1.703,0.619,1.134,0.997,��쓌,6.4,�L
2016/06/25,02:30,1.219,-,2.059,2.082,1.708,0.621,1.137,0.998,��쓌,5.0,�L
2016/06/25,02:40,1.223,-,2.064,2.089,1.718,0.624,1.141,0.999,��쓌,6.0,�L
2016/06/25,02:50,1.232,-,2.078,2.099,1.734,0.625,1.146,1.005,��쓌,6.6,�L
2016/06/25,03:00,1.234,-,2.084,2.106,1.747,0.625,1.150,1.005,��쓌,5.7,��
2016/06/25,03:10,1.238,-,2.082,2.109,1.750,0.627,1.150,1.008,��,4.6,�L
2016/06/25,03:20,1.237,-,2.086,2.110,1.753,0.627,1.151,1.009,�쐼,2.9,��
2016/06/25,03:30,1.241,-,2.090,2.112,1.757,0.628,1.151,1.009,�쐼,2.5,��
2016/06/25,03:40,1.240,-,2.093,2.118,1.762,0.627,1.153,1.010,�쐼,2.9,��
2016/06/25,03:50,1.241,-,2.092,2.120,1.768,0.627,1.153,1.010,�쐼,3.1,�L
2016/06/25,04:00,1.240,-,2.090,2.115,1.759,0.626,1.149,1.004,���쐼,2.8,�L
2016/06/25,04:10,1.241,-,2.094,2.112,1.763,0.627,1.149,1.008,���쐼,3.0,��
2016/06/25,04:20,1.241,-,2.092,2.119,1.763,0.629,1.153,1.010,�쐼,2.3,�L
2016/06/25,04:30,1.234,-,2.084,2.116,1.757,0.628,1.152,1.010,��,2.0,�L
2016/06/25,04:40,1.238,-,2.086,2.114,1.761,0.629,1.151,1.009,-,CALM,��
2016/06/25,04:50,1.239,-,2.086,2.118,1.762,0.628,1.153,1.009,�쐼,1.7,��
2016/06/25,05:00,1.242,-,2.092,2.120,1.765,0.628,1.153,1.009,��,3.1,��
2016/06/25,05:10,1.242,-,2.093,2.122,1.769,0.630,1.156,1.011,��,3.0,��
2016/06/25,05:20,1.245,-,2.096,2.122,1.772,0.631,1.157,1.011,��,3.3,��
2016/06/25,05:30,1.247,-,2.097,2.122,1.773,0.631,1.154,1.012,��,2.6,�L
2016/06/25,05:40,1.246,-,2.091,2.124,1.770,0.633,1.155,1.010,��,1.5,�L
2016/06/25,05:50,1.246,-,2.093,2.121,1.768,0.630,1.155,1.009,��쓌,4.0,�L
2016/06/25,06:00,1.246,-,2.088,2.116,1.766,0.631,1.154,1.011,��,4.4,��
2016/06/25,06:10,1.244,-,2.091,2.120,1.769,0.630,1.154,1.009,��,4.4,�L
2016/06/25,06:20,1.247,-,2.091,2.121,1.769,0.632,1.152,1.011,��,5.6,�L
2016/06/25,06:30,1.246,-,2.096,2.122,1.772,0.632,1.154,1.010,��,5.8,��
2016/06/25,06:40,1.247,-,2.098,2.124,1.776,0.632,1.156,1.011,��,4.5,��
2016/06/25,06:50,1.246,-,2.096,2.125,1.778,0.631,1.156,1.013,�쐼,3.3,��
2016/06/25,07:00,1.247,-,2.102,2.125,1.779,0.629,1.159,1.011,��쐼,5.0,��
2016/06/25,07:10,1.248,-,2.101,2.129,1.780,0.630,1.156,1.012,��,4.6,��
2016/06/25,07:20,1.248,-,2.100,2.126,1.785,0.630,1.158,1.010,��,4.1,��
2016/06/25,07:30,1.250,-,2.102,2.129,1.784,0.630,1.158,1.013,��,3.3,��
2016/06/25,07:40,1.249,-,2.102,2.129,1.785,0.629,1.158,1.011,��쐼,3.6,��
2016/06/25,07:50,1.251,-,2.106,2.128,1.790,0.631,1.159,1.010,��쐼,3.2,��
2016/06/25,08:00,1.251,-,2.107,2.131,1.794,0.630,1.157,1.013,��,3.2,��
2016/06/25,08:10,1.251,-,2.108,2.130,1.792,0.628,1.159,1.012,��,3.0,��
2016/06/25,08:20,1.252,-,2.107,2.132,1.792,0.628,1.162,1.010,��,3.0,��
2016/06/25,08:30,1.254,-,2.108,2.136,1.796,0.627,1.160,1.014,��,3.4,�L
2016/06/25,08:40,1.254,-,2.108,2.134,1.793,0.629,1.162,1.012,��쐼,2.6,��
2016/06/25,08:50,1.253,-,2.108,2.133,1.795,0.628,1.160,1.014,��쐼,1.9,��
2016/06/25,09:00,1.257,-,2.111,2.137,1.792,0.628,1.162,1.014,��,2.0,��
2016/06/25,09:10,1.255,-,2.111,2.137,1.797,0.628,1.161,1.015,�쐼,1.5,��
2016/06/25,09:20,1.255,-,2.112,2.138,1.798,0.628,1.162,1.015,���쐼,2.6,��
2016/06/25,09:30,1.257,-,2.116,2.139,1.797,0.626,1.164,1.013,���쐼,1.4,��
2016/06/25,09:40,1.256,-,2.115,2.141,1.798,0.626,1.164,1.013,�쐼,0.9,��
2016/06/25,09:50,1.256,-,2.111,2.139,1.799,0.628,1.165,1.015,���k��,0.9,��
2016/06/25,10:00,1.256,-,2.115,2.141,1.800,0.629,1.164,1.013,�k�k��,2.2,��
2016/06/25,10:10,1.256,-,2.118,2.143,1.803,0.628,1.164,1.014,�k��,3.3,��
2016/06/25,10:20,1.256,-,2.114,2.142,1.804,0.629,1.166,1.015,���k��,2.8,��
2016/06/25,10:30,1.258,-,2.117,2.144,1.807,0.628,1.167,1.016,���k��,3.5,��
2016/06/25,10:40,1.260,-,2.119,2.147,1.815,0.628,1.167,1.014,���k��,4.0,��
2016/06/25,10:50,1.256,-,2.116,2.144,1.813,0.629,1.168,1.016,���k��,2.2,��
2016/06/25,11:00,1.257,-,2.118,2.143,1.810,0.629,1.167,1.015,���k��,3.4,��
2016/06/25,11:10,1.261,-,2.122,2.147,1.810,0.630,1.169,1.014,�k��,2.5,��
2016/06/25,11:20,1.259,-,2.124,2.148,1.812,0.628,1.168,1.014,���k��,1.4,��
2016/06/25,11:30,1.261,-,2.124,2.150,1.815,0.628,1.168,1.016,���k��,4.1,��
2016/06/25,11:40,1.256,-,2.127,2.147,1.808,0.629,1.169,1.014,��,2.3,��
2016/06/25,11:50,1.257,-,2.128,2.149,1.813,0.631,1.169,1.016,���쐼,0.9,��
2016/06/25,12:00,1.256,-,2.131,2.149,1.815,0.629,1.172,1.017,�k��,1.4,��
2016/06/25,12:10,1.259,-,2.125,2.149,1.813,0.627,1.172,1.014,���k��,3.3,��
2016/06/25,12:20,1.260,-,2.129,2.152,1.816,0.628,1.171,1.017,���쐼,1.4,��
2016/06/25,12:30,1.259,-,2.132,2.153,1.821,0.629,1.172,1.015,���쐼,2.0,��
2016/06/25,12:40,1.261,-,2.131,2.154,1.820,0.630,1.172,1.018,��,2.5,��
2016/06/25,12:50,1.260,-,2.133,2.154,1.822,0.629,1.172,1.015,���k��,2.5,��
2016/06/25,13:00,1.259,-,2.136,2.158,1.822,0.629,1.172,1.017,��,1.7,��
2016/06/25,13:10,1.262,-,2.132,2.157,1.824,0.632,1.176,1.016,���k��,2.6,��
2016/06/25,13:20,1.262,-,2.131,2.155,1.825,0.630,1.173,1.018,��,2.0,��
2016/06/25,13:30,1.263,-,2.130,2.161,1.820,0.631,1.173,1.016,���k��,2.6,��
2016/06/25,13:40,1.261,-,2.133,2.157,1.825,0.630,1.175,1.017,�k�k��,0.9,��
2016/06/25,13:50,1.263,-,2.135,2.158,1.829,0.632,1.171,1.018,�k�k��,3.4,��
2016/06/25,14:00,1.260,-,2.136,2.159,1.829,0.628,1.174,1.018,�k��,4.0,��
2016/06/25,14:10,1.264,-,2.137,2.161,1.836,0.630,1.173,1.018,�k��,2.9,��
2016/06/25,14:20,1.264,-,2.137,2.162,1.830,0.631,1.173,1.017,�k��,3.1,��
2016/06/25,14:30,1.263,-,2.140,2.161,1.834,0.629,1.174,1.018,�k�k��,3.6,��
2016/06/25,14:40,1.265,-,2.137,2.162,1.835,0.630,1.175,1.018,�k�k��,3.8,��
2016/06/25,14:50,1.266,-,2.140,2.160,1.836,0.630,1.174,1.020,�k�k��,4.0,��
2016/06/25,15:00,1.262,-,2.140,2.161,1.837,0.628,1.175,1.020,�k��,3.8,��
2016/06/25,15:10,1.264,-,2.141,2.163,1.836,0.632,1.176,1.018,�k��,4.8,��
2016/06/25,15:20,1.265,-,2.141,2.164,1.836,0.631,1.175,1.020,�k�k��,3.7,��
2016/06/25,15:30,1.264,-,2.140,2.163,1.838,0.630,1.176,1.019,�k��,4.2,��
2016/06/25,15:40,1.264,-,2.141,2.168,1.838,0.631,1.177,1.019,�k��,4.1,��
2016/06/25,15:50,1.266,-,2.141,2.163,1.841,0.631,1.178,1.020,���k��,4.9,��
2016/06/25,16:00,1.266,-,2.143,2.166,1.839,0.631,1.177,1.020,�k��,5.1,��
2016/06/25,16:10,1.266,-,2.144,2.167,1.842,0.630,1.175,1.022,�k��,3.4,��
2016/06/25,16:20,1.266,-,2.146,2.162,1.844,0.631,1.176,1.020,�k��,1.4,��
2016/06/25,16:30,1.269,-,2.144,2.166,1.838,0.633,1.177,1.020,��,0.9,��
2016/06/25,16:40,1.268,-,2.143,2.169,1.842,0.629,1.177,1.022,�쐼,0.6,��
2016/06/25,16:50,1.269,-,2.144,2.164,1.843,0.633,1.176,1.020,��쐼,1.2,��
2016/06/25,17:00,1.268,-,2.146,2.167,1.845,0.631,1.177,1.023,��,1.9,��
2016/06/25,17:10,1.267,-,2.147,2.168,1.846,0.631,1.176,1.023,��쓌,3.8,��
2016/06/25,17:20,1.269,-,2.151,2.167,1.846,0.631,1.177,1.023,��쓌,3.9,��
2016/06/25,17:30,1.267,-,2.150,2.168,1.850,0.631,1.180,1.023,��쓌,2.9,��
2016/06/25,17:40,1.270,-,2.147,2.167,1.849,0.631,1.177,1.022,��쓌,3.1,��
2016/06/25,17:50,1.268,-,2.151,2.168,1.847,0.631,1.177,1.020,��쓌,2.9,��
2016/06/25,18:00,1.269,-,2.146,2.167,1.848,0.632,1.178,1.022,��,1.5,��
2016/06/25,18:10,1.268,-,2.149,2.169,1.848,0.630,1.177,1.022,�쐼,1.7,��
2016/06/25,18:20,1.268,-,2.148,2.171,1.847,0.630,1.174,1.023,�쐼,2.5,��
2016/06/25,18:30,1.269,-,2.146,2.168,1.848,0.632,1.177,1.023,�쐼,2.8,��
2016/06/25,18:40,1.268,-,2.147,2.171,1.849,0.633,1.178,1.024,�쐼,2.6,��
2016/06/25,18:50,1.271,-,2.150,2.168,1.847,0.632,1.178,1.023,��쐼,2.5,��
2016/06/25,19:00,1.271,-,2.150,2.168,1.847,0.633,1.178,1.024,��쐼,2.2,��
2016/06/25,19:10,1.272,-,2.151,2.169,1.850,0.631,1.177,1.023,���쐼,1.4,��
2016/06/25,19:20,1.271,-,2.150,2.169,1.851,0.633,1.177,1.026,��쐼,2.6,��
2016/06/25,19:30,1.270,-,2.150,2.171,1.849,0.633,1.177,1.024,�쐼,1.9,��
2016/06/25,19:40,1.271,-,2.151,2.173,1.852,0.633,1.178,1.026,��쐼,2.5,��
2016/06/25,19:50,1.271,-,2.150,2.171,1.852,0.634,1.178,1.024,�쐼,2.9,��
2016/06/25,20:00,1.273,-,2.146,2.169,1.853,0.633,1.179,1.024,���쐼,2.8,��
2016/06/25,20:10,1.272,-,2.149,2.169,1.855,0.633,1.180,1.026,���쐼,3.1,��
2016/06/25,20:20,1.272,-,2.149,2.174,1.851,0.634,1.179,1.024,��,2.3,��
2016/06/25,20:30,1.272,-,2.152,2.168,1.853,0.634,1.181,1.025,��,2.2,��
2016/06/25,20:40,1.272,-,2.151,2.171,1.852,0.633,1.181,1.026,���k��,2.5,��
2016/06/25,20:50,1.271,-,2.152,2.169,1.852,0.635,1.179,1.025,��,2.2,��
2016/06/25,21:00,1.271,-,2.152,2.171,1.850,0.634,1.177,1.025,��,2.0,��
2016/06/25,21:10,1.272,-,2.152,2.173,1.852,0.634,1.178,1.026,���k��,2.3,��
2016/06/25,21:20,1.273,-,2.149,2.170,1.855,0.635,1.178,1.024,��,2.0,��
2016/06/25,21:30,1.273,-,2.153,2.172,1.851,0.634,1.179,1.023,���쐼,2.5,��
2016/06/25,21:40,1.274,-,2.150,2.172,1.853,0.634,1.176,1.026,�쐼,3.2,��
2016/06/25,21:50,1.271,-,2.149,2.172,1.851,0.636,1.174,1.023,���쐼,3.8,��
2016/06/25,22:00,1.272,-,2.153,2.172,1.850,0.635,1.177,1.024,��,5.8,��
2016/06/25,22:10,1.272,-,2.152,2.170,1.849,0.635,1.178,1.023,��,5.3,��
2016/06/25,22:20,1.271,-,2.151,2.170,1.849,0.635,1.176,1.024,�k�k��,2.5,��
2016/06/25,22:30,1.270,-,2.149,2.169,1.850,0.635,1.177,1.024,�k�k��,4.1,��
2016/06/25,22:40,1.274,-,2.148,2.167,1.852,0.634,1.175,1.025,�k�k��,5.0,��
2016/06/25,22:50,1.271,-,2.147,2.168,1.851,0.635,1.179,1.025,�k�k��,5.9,��
2016/06/25,23:00,1.274,-,2.142,2.172,1.850,0.637,1.178,1.027,�k�k��,6.3,��
2016/06/25,23:10,1.273,-,2.146,2.168,1.846,0.637,1.178,1.023,�k��,5.3,��
2016/06/25,23:20,1.273,-,2.147,2.172,1.848,0.636,1.176,1.024,�k��,5.6,��
2016/06/25,23:30,1.272,-,2.141,2.168,1.847,0.636,1.177,1.023,�k��,5.4,��
2016/06/25,23:40,1.274,-,2.145,2.167,1.847,0.635,1.177,1.021,�k��,7.9,�L
2016/06/25,23:50,1.269,-,2.141,2.167,1.844,0.636,1.176,1.021,�k��,8.7,��
